Home   Weather   Suzuka   Past weeks

Flag for Japan Past Weather in Suzuka, Japan — Yesterday and Last 2 Weeks

Now
62 °F

Overcast.


Feels Like: 62 °F
Forecast: 55 / 62 °F
Wind: 8 mph from Southeast

Location: Tsu

Current Time: Apr 25, 2017 at 10:00:24 am

Latest Report: Apr 25, 2017 at 9:00 am


Visibility: 9 mi

Pressure: 30.33 "Hg

Humidity: 63%

Dew Point: 49 °F

Location of SuzukaLocation

Past Weather in Suzuka — Graph

°F

Suzuka Temperature Yesterday

Maximum temperature yesterday: 67 °F (at 1:00 pm)
Minimum temperature yesterday: 50 °F (at 2:00 am)
Average temperature yesterday: 59 °F

High & Low Weather Summary for the Past Weeks

 TemperatureHumidityPressure
High69 °F (Apr 16, 7:00 pm)92% (Apr 18, 12:00 am)30.35 "Hg (Apr 18, 12:00 am)
Low45 °F (Apr 13, 6:00 am)22% (Apr 23, 4:00 pm)29.29 "Hg (Apr 18, 2:00 am)
Average58 °F60%29.90 "Hg
* Reported Apr 10 8:00 am — Apr 25 8:00 am, Suzuka, Weather by CustomWeather, © 2017

Note: Actual official high and low records may vary slightly from our data, if they occured in-between our weather recording intervals... More about our weather records

Advertising

Suzuka Weather History for the Previous 24 Hours

Scroll right to see more
 ConditionsComfort  
Time TempWeatherWind HumidityBarometerVisibility
8:00 am
Tue, Apr 25
59 °FCool.3 mph73%30.35 "HgN/A
7:00 am59 °FCool.5 mph76%30.34 "HgN/A
6:00 am57 °FCool.3 mph79%30.32 "HgN/A
5:00 am57 °FCool.12 mph79%30.30 "HgN/A
4:00 am57 °FCool.10 mph78%30.30 "HgN/A
3:00 am57 °FCool.12 mph80%30.30 "HgN/A
2:00 am58 °FCool.12 mph81%30.30 "HgN/A
1:00 am59 °FCool.3 mph74%30.31 "HgN/A
12:00 am59 °FCool.6 mph73%30.32 "HgN/A
11:00 pm
Mon, Apr 24
59 °FCool.7 mph76%30.31 "HgN/A
10:00 pm60 °FCool.8 mph72%30.32 "HgN/A
9:00 pm60 °FOvercast.8 mph72%30.32 "Hg19 mi
8:00 pm61 °FCool.9 mph69%30.32 "HgN/A
7:00 pm62 °FCool.12 mph65%30.30 "HgN/A
6:00 pm62 °FCool.13 mph64%30.28 "HgN/A
5:00 pm62 °FCool.16 mph63%30.27 "HgN/A
4:00 pm64 °FMild.20 mph59%30.26 "HgN/A
3:00 pm65 °FScattered clouds.17 mph58%30.26 "Hg19 mi
2:00 pm66 °FMild.17 mph58%30.27 "HgN/A
1:00 pm67 °FMild.18 mph58%30.28 "HgN/A
12:00 pm65 °FMild.8 mph59%30.30 "HgN/A
11:00 am61 °FCool.6 mph62%30.32 "HgN/A
10:00 am60 °FCool.3 mph65%30.33 "HgN/A
Weather by CustomWeather, © 2017

See weather overviewHow to use our weather pages